Date String (YYYY-MM-DD hh:mm:ss) UTC,Instrument flags,absolute air pressure of the measurement (hPa),sample flow rate (lpm),inlet stack bypass flow (lpm),air temperature of the measurement (°C),ambient temperature measured by the external sensor (°C),aerosol sample conditioner tube jacket temperature (°C),OPC LED temperature (°C),internal box temperature (°C),relative humidity of the measurement (%),span deviation,mass concentration of particles derived from Lorenz-Mie calculation of OPC scattering (μg/m³),mass concentration of particles derived from Lorenz-Mie calculation of OPC scattering (μg/m³),mass concentration of particles derived from Lorenz-Mie calculation of OPC scattering (μg/m³)
DateTimeUTC,F1_M11,P_M11,Q1_M11,Q2_M11,T1_M11,T2_M11,T3_M11,T4_M11,T5_M11,U1_M11,ZSPAN_M11,X0_M11,X2_M11,X1_M11
2023-11-30 20:00:00,SystemResetWarning,0822.2,5.00,000.00,020.9,020.1,000.0,029.1,022.2,12.0,0000.0,0010.76,0005.57,0005.06
2023-11-30 20:01:00,SystemResetWarning,0822.1,5.01,000.00,020.9,020.1,000.0,029.2,022.2,12.0,0000.0,0011.05,0005.54,0005.05
2023-11-30 20:02:00,SystemResetWarning,0822.1,5.00,000.00,020.9,020.1,000.0,029.2,022.1,12.2,0000.0,0010.44,0005.54,0005.05
2023-11-30 20:03:00,SystemResetWarning,0822.1,5.00,000.00,020.9,020.1,000.0,029.2,022.2,12.2,0000.0,0010.26,0005.55,0005.05
2023-11-30 20:04:00,SystemResetWarning,0822.1,5.00,000.00,020.9,020.1,000.0,029.2,022.2,12.2,0000.0,0009.80,0005.54,0005.05
2023-11-30 20:05:00,SystemResetWarning,0822.1,5.00,000.00,020.9,020.1,000.0,029.2,022.2,12.2,0000.0,0009.40,0005.56,0005.05
2023-11-30 20:06:00,SystemResetWarning,0822.1,4.99,000.00,020.9,020.1,000.0,029.2,022.2,12.3,0000.0,0009.64,0005.60,0005.06
2023-11-30 20:07:00,SystemResetWarning,0822.1,5.00,000.00,020.9,020.1,000.0,029.2,022.2,12.1,0000.0,0009.76,0005.64,0005.05
2023-11-30 20:08:00,SystemResetWarning,0822.1,5.00,000.00,020.9,020.1,000.0,029.2,022.2,11.9,0000.0,0009.93,0005.70,0005.06
2023-11-30 20:09:00,SystemResetWarning,0822.1,5.01,000.00,021.0,020.1,000.0,029.2,022.3,12.3,0000.0,0010.58,0005.70,0005.06
2023-11-30 20:10:00,SystemResetWarning,0822.1,5.01,000.00,021.0,020.2,000.0,029.2,022.3,12.2,0000.0,0010.69,0005.73,0005.06
2023-11-30 20:11:00,SystemResetWarning,0822.0,4.99,000.00,021.0,020.2,000.0,029.2,022.3,12.1,0000.0,0010.68,0005.77,0005.06
2023-11-30 20:12:00,SystemResetWarning,0822.0,4.99,000.00,021.0,020.2,000.0,029.2,022.3,12.0,0000.0,0010.24,0005.75,0005.05
2023-11-30 20:13:00,SystemResetWarning,0822.1,4.99,000.00,021.0,020.2,000.0,029.2,022.3,11.8,0000.0,0010.02,0005.70,0005.04
2023-11-30 20:14:00,SystemResetWarning,0822.0,5.00,000.00,021.0,020.2,000.0,029.2,022.3,11.6,0000.0,0010.06,0005.68,0005.02
2023-11-30 20:15:00,SystemResetWarning,0822.0,5.00,000.00,021.0,020.2,000.0,029.2,022.3,11.8,0000.0,0010.08,0005.66,0005.00
2023-11-30 20:16:00,SystemResetWarning,0822.0,5.01,000.00,021.0,020.2,000.0,029.2,022.3,11.9,0000.0,0010.08,0005.64,0004.98
2023-11-30 20:17:00,SystemResetWarning,0822.0,5.01,000.00,021.0,020.3,000.0,029.3,022.4,12.0,0000.0,0009.95,0005.64,0004.98
2023-11-30 20:18:00,SystemResetWarning,0822.0,5.00,000.00,021.1,020.3,000.0,029.3,022.4,12.0,0000.0,0009.87,0005.62,0004.98
2023-11-30 20:19:00,SystemResetWarning,0821.9,5.00,000.00,021.1,020.3,000.0,029.3,022.4,11.8,0000.0,0009.92,0005.52,0004.96
2023-11-30 20:20:00,SystemResetWarning,0822.0,5.00,000.00,021.1,020.3,000.0,029.3,022.4,11.7,0000.0,0009.78,0005.50,0004.96
2023-11-30 20:21:00,SystemResetWarning,0822.0,4.99,000.00,021.1,020.3,000.0,029.3,022.5,11.8,0000.0,0009.56,0005.49,0004.96
2023-11-30 20:22:00,SystemResetWarning,0822.0,5.00,000.00,021.1,020.4,000.0,029.3,022.5,11.6,0000.0,0010.29,0005.47,0004.96
2023-11-30 20:23:00,SystemResetWarning,0821.9,5.01,000.00,021.1,020.4,000.0,029.3,022.5,11.6,0000.0,0010.36,0005.49,0004.96
2023-11-30 20:24:00,SystemResetWarning,0821.9,5.01,000.00,021.1,020.4,000.0,029.3,022.5,11.7,0000.0,0010.48,0005.54,0004.97
2023-11-30 20:25:00,SystemResetWarning,0822.0,5.00,000.00,021.2,020.4,000.0,029.3,022.5,11.9,0000.0,0010.43,0005.52,0004.96
2023-11-30 20:26:00,SystemResetWarning,0821.9,5.00,000.00,021.2,020.4,000.0,029.4,022.5,12.1,0000.0,0010.87,0005.49,0004.96
2023-11-30 20:27:00,SystemResetWarning,0822.0,5.00,000.00,021.2,020.4,000.0,029.4,022.6,12.2,0000.0,0011.04,0005.50,0004.97
2023-11-30 20:28:00,SystemResetWarning,0822.0,4.99,000.00,021.2,020.5,000.0,029.4,022.6,12.1,0000.0,0011.00,0005.46,0004.96
2023-11-30 20:29:00,SystemResetWarning,0821.9,5.00,000.00,021.2,020.5,000.0,029.4,022.6,11.9,0000.0,0011.05,0005.45,0004.96
2023-11-30 20:30:00,SystemResetWarning,0821.9,5.00,000.00,021.2,020.5,000.0,029.4,022.6,11.7,0000.0,0010.86,0005.43,0004.94
2023-11-30 20:31:00,SystemResetWarning,0821.9,5.02,000.00,021.2,020.5,000.0,029.4,022.6,11.9,0000.0,0010.26,0005.40,0004.93
2023-11-30 20:32:00,SystemResetWarning,0821.8,5.01,000.00,021.3,020.5,000.0,029.4,022.6,11.9,0000.0,0010.20,0005.37,0004.91
2023-11-30 20:33:00,SystemResetWarning,0821.8,4.99,000.00,021.3,020.5,000.0,029.4,022.6,11.9,0000.0,0009.55,0005.36,0004.88
2023-11-30 20:34:00,SystemResetWarning,0821.8,4.99,000.00,021.3,020.5,000.0,029.4,022.6,11.9,0000.0,0009.38,0005.31,0004.84
2023-11-30 20:35:00,SystemResetWarning,0821.8,5.00,000.00,021.3,020.5,000.0,029.5,022.7,11.6,0000.0,0010.21,0005.25,0004.81
2023-11-30 20:36:00,SystemResetWarning,0821.8,5.00,000.00,021.3,020.5,000.0,029.5,022.7,11.7,0000.0,0010.72,0005.23,0004.80
2023-11-30 20:37:00,SystemResetWarning,0821.8,5.00,000.00,021.3,020.5,000.0,029.5,022.7,11.8,0000.0,0010.43,0005.23,0004.79
2023-11-30 20:38:00,SystemResetWarning,0821.8,5.01,000.00,021.3,020.6,000.0,029.5,022.7,11.5,0000.0,0010.16,0005.21,0004.77
2023-11-30 20:39:00,SystemResetWarning,0821.8,5.01,000.00,021.3,020.6,000.0,029.5,022.7,11.6,0000.0,0010.12,0005.18,0004.74
2023-11-30 20:40:00,SystemResetWarning,0821.8,5.00,000.00,021.4,020.6,000.0,029.5,022.7,11.5,0000.0,0009.91,0005.13,0004.73
2023-11-30 20:41:00,SystemResetWarning,0821.8,4.99,000.00,021.4,020.6,000.0,029.5,022.7,11.4,0000.0,0009.96,0005.15,0004.72
2023-11-30 20:42:00,SystemResetWarning,0821.8,4.99,000.00,021.4,020.6,000.0,029.5,022.8,11.3,0000.0,0009.91,0005.14,0004.70
2023-11-30 20:43:00,SystemResetWarning,0821.8,5.01,000.00,021.4,020.6,000.0,029.6,022.8,11.4,0000.0,0010.17,0005.11,0004.68
2023-11-30 20:44:00,SystemResetWarning,0821.8,5.01,000.00,021.4,020.7,000.0,029.6,022.8,11.7,0000.0,0010.45,0005.10,0004.67
2023-11-30 20:45:00,SystemResetWarning,0821.8,4.99,000.00,021.4,020.7,000.0,029.6,022.8,11.6,0000.0,0010.36,0005.12,0004.69
2023-11-30 20:46:00,SystemResetWarning,0821.8,5.00,000.00,021.5,020.7,000.0,029.6,022.8,11.4,0000.0,0009.69,0005.15,0004.72
2023-11-30 20:47:00,SystemResetWarning,0821.8,4.99,000.00,021.5,020.7,000.0,029.6,022.8,11.4,0000.0,0009.08,0005.20,0004.74
2023-11-30 20:48:00,SystemResetWarning,0821.8,5.00,000.00,021.5,020.8,000.0,029.6,022.9,11.3,0000.0,0009.02,0005.23,0004.76
2023-11-30 20:49:00,SystemResetWarning,0821.8,5.00,000.00,021.5,020.8,000.0,029.7,022.9,11.2,0000.0,0008.95,0005.21,0004.77
2023-11-30 20:50:00,SystemResetWarning,0821.8,5.00,000.00,021.5,020.8,000.0,029.7,022.9,11.2,0000.0,0008.83,0005.20,0004.78
2023-11-30 20:51:00,SystemResetWarning,0821.8,5.01,000.00,021.5,020.8,000.0,029.7,022.9,11.1,0000.0,0008.83,0005.21,0004.79
2023-11-30 20:52:00,SystemResetWarning,0821.8,5.00,000.00,021.6,020.8,000.0,029.7,022.9,11.3,0000.0,0008.89,0005.20,0004.80
2023-11-30 20:53:00,SystemResetWarning,0821.8,5.00,000.00,021.6,020.8,000.0,029.7,022.9,11.2,0000.0,0009.45,0005.22,0004.82
2023-11-30 20:54:00,SystemResetWarning,0821.8,4.99,000.00,021.6,020.8,000.0,029.7,022.9,11.2,0000.0,0009.17,0005.24,0004.83
2023-11-30 20:55:00,SystemResetWarning,0821.8,4.99,000.00,021.6,020.8,000.0,029.7,023.0,11.1,0000.0,0008.97,0005.26,0004.84
2023-11-30 20:56:00,SystemResetWarning,0821.8,5.00,000.00,021.6,020.9,000.0,029.7,023.0,11.1,0000.0,0008.96,0005.27,0004.85
2023-11-30 20:57:00,SystemResetWarning,0821.8,5.00,000.00,021.6,020.9,000.0,029.8,023.0,11.0,0000.0,0008.94,0005.25,0004.83
2023-11-30 20:58:00,SystemResetWarning,0821.8,5.00,000.00,021.6,020.9,000.0,029.8,023.0,11.0,0000.0,0008.88,0005.21,0004.80
2023-11-30 20:59:00,SystemResetWarning,0821.8,5.00,000.00,021.7,020.9,000.0,029.8,023.0,11.0,0000.0,0009.49,0005.19,0004.77
